Location: Naloco
(16.5478°S, 37.1017°E)
Time: 00:53:28
(UTC+00:00)

Cosmos 2084 Rocket - Pass Details

Date: 13 August 2020
Orbit: 549 x 632 km, 62.8° (Epoch: 23 September)

Event Time Altitude Azimuth Distance (km) Brightness Sun altitude
Rises 15:42:00 0° 193° (SSW) 2,755 6.9 -5.4°
Reaches altitude 10° 15:44:25 10° 182° (S) 1,846 5.9 -5.9°
Maximum altitude 15:48:09 32° 118° (ESE) 955 4.0 -6.8°
Drops below altitude 10° 15:51:50 10° 53° (NE) 1,816 5.6 -7.7°
Sets 15:54:11 0° 43° (NE) 2,704 6.5 -8.2°
